Time,TemperatureF,DewpointF,PressureIn,WindDirection,WindDirectionDegrees,WindSpeedMPH,WindSpeedGustMPH,Humidity,HourlyPrecipIn,Conditions,Clouds,dailyrainin,SoftwareType,DateUTC
2013-01-18 00:02:00,24.0,16.0,-100.00,SSE,155,2.0,4.0,70,-99.99,,,-99.99,,2013-01-18 06:02:00,
2013-01-18 00:12:00,25.0,16.0,-100.00,SW,215,1.0,4.0,69,-99.99,,,-99.99,,2013-01-18 06:12:00,
2013-01-18 00:22:00,25.0,16.0,-100.00,SSW,205,0.0,1.0,69,-99.99,,,-99.99,,2013-01-18 06:22:00,
2013-01-18 00:33:00,25.0,16.0,-100.00,SSW,205,0.0,1.0,69,-99.99,,,-99.99,,2013-01-18 06:33:00,
2013-01-18 00:43:00,25.0,17.0,-100.00,SSW,205,0.0,1.0,70,-99.99,,,-99.99,,2013-01-18 06:43:00,
2013-01-18 00:53:00,25.0,17.0,-100.00,ENE,75,0.0,2.0,71,-99.99,,,-99.99,,2013-01-18 06:53:00,
2013-01-18 01:02:00,25.0,17.0,-100.00,ENE,75,0.0,2.0,71,-99.99,,,-99.99,,2013-01-18 07:02:00,
2013-01-18 01:12:00,26.0,17.0,-100.00,SE,135,1.0,1.0,70,-99.99,,,-99.99,,2013-01-18 07:12:00,
2013-01-18 01:22:00,25.0,18.0,-100.00,SE,135,2.0,4.0,73,-99.99,,,-99.99,,2013-01-18 07:22:00,
2013-01-18 01:32:00,25.0,18.0,-100.00,SSE,150,3.0,4.0,73,-99.99,,,-99.99,,2013-01-18 07:32:00,
2013-01-18 01:42:00,25.0,18.0,-100.00,SSE,150,3.0,4.0,73,-99.99,,,-99.99,,2013-01-18 07:42:00,
2013-01-18 01:52:00,26.0,17.0,-100.00,SE,135,1.0,4.0,68,-99.99,,,-99.99,,2013-01-18 07:52:00,
2013-01-18 02:02:00,26.0,17.0,-100.00,SE,135,1.0,4.0,68,-99.99,,,-99.99,,2013-01-18 08:02:00,
2013-01-18 02:12:00,26.0,17.0,-100.00,ENE,75,0.0,1.0,67,-99.99,,,-99.99,,2013-01-18 08:12:00,
2013-01-18 02:22:00,26.0,18.0,-100.00,SSE,160,1.0,5.0,71,-99.99,,,-99.99,,2013-01-18 08:22:00,
2013-01-18 02:32:00,26.0,18.0,-100.00,SSE,160,1.0,5.0,71,-99.99,,,-99.99,,2013-01-18 08:32:00,
2013-01-18 02:42:00,26.0,18.0,-100.00,SSE,160,1.0,5.0,71,-99.99,,,-99.99,,2013-01-18 08:42:00,
2013-01-18 02:53:00,25.0,17.0,-100.00,SSE,155,5.0,9.0,71,-99.99,,,-99.99,,2013-01-18 08:53:00,
2013-01-18 03:02:00,25.0,17.0,-100.00,SSE,155,5.0,9.0,71,-99.99,,,-99.99,,2013-01-18 09:02:00,
2013-01-18 03:12:00,25.0,17.0,-100.00,SSE,150,1.0,6.0,72,-99.99,,,-99.99,,2013-01-18 09:12:00,
2013-01-18 03:22:00,25.0,18.0,-100.00,SSE,155,1.0,2.0,72,-99.99,,,-99.99,,2013-01-18 09:22:00,
2013-01-18 03:33:00,25.0,18.0,-100.00,SSE,155,1.0,2.0,72,-99.99,,,-99.99,,2013-01-18 09:33:00,
2013-01-18 03:42:00,25.0,18.0,-100.00,SE,135,4.0,6.0,73,-99.99,,,-99.99,,2013-01-18 09:42:00,
2013-01-18 03:53:00,25.0,18.0,-100.00,SE,145,3.0,6.0,74,-99.99,,,-99.99,,2013-01-18 09:53:00,
2013-01-18 04:02:00,25.0,18.0,-100.00,SE,145,3.0,6.0,74,-99.99,,,-99.99,,2013-01-18 10:02:00,
2013-01-18 04:12:00,25.0,18.0,-100.00,SSE,150,5.0,7.0,74,-99.99,,,-99.99,,2013-01-18 10:12:00,
2013-01-18 04:22:00,26.0,19.0,-100.00,SE,135,6.0,9.0,75,-99.99,,,-99.99,,2013-01-18 10:22:00,
2013-01-18 04:32:00,26.0,19.0,-100.00,SE,135,6.0,9.0,75,-99.99,,,-99.99,,2013-01-18 10:32:00,
2013-01-18 04:42:00,26.0,19.0,-100.00,SE,135,7.0,10.0,74,-99.99,,,-99.99,,2013-01-18 10:42:00,
2013-01-18 04:53:00,26.0,19.0,-100.00,SE,135,4.0,9.0,74,-99.99,,,-99.99,,2013-01-18 10:53:00,
2013-01-18 05:02:00,26.0,19.0,-100.00,SE,135,4.0,9.0,74,-99.99,,,-99.99,,2013-01-18 11:02:00,
2013-01-18 05:12:00,26.0,19.0,-100.00,SE,140,3.0,7.0,75,-99.99,,,-99.99,,2013-01-18 11:12:00,
2013-01-18 05:23:00,26.0,19.0,-100.00,SE,135,3.0,5.0,75,-99.99,,,-99.99,,2013-01-18 11:23:00,
2013-01-18 05:32:00,26.0,19.0,-100.00,SE,135,3.0,5.0,75,-99.99,,,-99.99,,2013-01-18 11:32:00,
2013-01-18 05:42:00,26.0,19.0,-100.00,SE,135,5.0,7.0,75,-99.99,,,-99.99,,2013-01-18 11:42:00,
2013-01-18 05:53:00,26.0,19.0,-100.00,SE,125,5.0,9.0,74,-99.99,,,-99.99,,2013-01-18 11:53:00,
2013-01-18 06:03:00,26.0,19.0,-100.00,SE,125,5.0,9.0,74,-99.99,,,-99.99,,2013-01-18 12:03:00,
2013-01-18 06:12:00,26.0,19.0,-100.00,SE,135,4.0,10.0,73,-99.99,,,-99.99,,2013-01-18 12:12:00,
2013-01-18 06:22:00,27.0,19.0,-100.00,SSE,150,4.0,11.0,72,-99.99,,,-99.99,,2013-01-18 12:22:00,
2013-01-18 06:33:00,27.0,19.0,-100.00,SSE,150,4.0,11.0,72,-99.99,,,-99.99,,2013-01-18 12:33:00,
2013-01-18 06:43:00,28.0,20.0,-100.00,SSE,150,5.0,9.0,70,-99.99,,,-99.99,,2013-01-18 12:43:00,
2013-01-18 06:53:00,29.0,20.0,-100.00,South,175,5.0,10.0,70,-99.99,,,-99.99,,2013-01-18 12:53:00,
2013-01-18 07:03:00,29.0,20.0,-100.00,South,175,5.0,10.0,70,-99.99,,,-99.99,,2013-01-18 13:03:00,
2013-01-18 07:12:00,29.0,20.0,-100.00,SSE,160,6.0,11.0,70,-99.99,,,-99.99,,2013-01-18 13:12:00,
2013-01-18 07:23:00,29.0,21.0,-100.00,South,170,5.0,10.0,70,-99.99,,,-99.99,,2013-01-18 13:23:00,
2013-01-18 07:33:00,29.0,21.0,-100.00,South,170,5.0,9.0,70,-99.99,,,-99.99,,2013-01-18 13:33:00,
2013-01-18 07:43:00,29.0,21.0,-100.00,South,170,5.0,9.0,70,-99.99,,,-99.99,,2013-01-18 13:43:00,
2013-01-18 07:53:00,29.0,20.0,-100.00,SSE,165,7.0,11.0,69,-99.99,,,-99.99,,2013-01-18 13:53:00,
2013-01-18 08:03:00,29.0,20.0,-100.00,SSE,165,7.0,11.0,69,-99.99,,,-99.99,,2013-01-18 14:03:00,
2013-01-18 08:12:00,29.0,20.0,-100.00,SSE,160,8.0,14.0,69,-99.99,,,-99.99,,2013-01-18 14:12:00,
2013-01-18 08:23:00,29.0,20.0,-100.00,SE,145,7.0,17.0,69,-99.99,,,-99.99,,2013-01-18 14:23:00,
2013-01-18 08:33:00,29.0,20.0,-100.00,SE,145,7.0,17.0,69,-99.99,,,-99.99,,2013-01-18 14:33:00,
2013-01-18 08:42:00,29.0,20.0,-100.00,SE,145,6.0,16.0,69,-99.99,,,-99.99,,2013-01-18 14:42:00,
2013-01-18 08:53:00,30.0,21.0,-100.00,SSE,150,6.0,17.0,68,-99.99,,,-99.99,,2013-01-18 14:53:00,
2013-01-18 09:03:00,30.0,21.0,-100.00,SSE,150,6.0,17.0,68,-99.99,,,-99.99,,2013-01-18 15:03:00,
2013-01-18 09:12:00,31.0,21.0,-100.00,South,180,7.0,21.0,66,-99.99,,,-99.99,,2013-01-18 15:12:00,
2013-01-18 09:23:00,33.0,22.0,-100.00,SSE,165,6.0,20.0,63,-99.99,,,-99.99,,2013-01-18 15:23:00,
2013-01-18 09:33:00,34.0,22.0,-100.00,SSW,195,13.0,23.0,60,-99.99,,,-99.99,,2013-01-18 15:33:00,
2013-01-18 09:43:00,34.0,22.0,-100.00,SSW,195,13.0,23.0,60,-99.99,,,-99.99,,2013-01-18 15:43:00,
2013-01-18 09:54:00,35.0,22.0,-100.00,SSE,150,6.0,26.0,58,-99.99,,,-99.99,,2013-01-18 15:54:00,
2013-01-18 10:03:00,35.0,22.0,-100.00,SSE,150,6.0,26.0,58,-99.99,,,-99.99,,2013-01-18 16:03:00,
2013-01-18 10:12:00,36.0,23.0,-100.00,SE,125,7.0,23.0,58,-99.99,,,-99.99,,2013-01-18 16:12:00,
2013-01-18 10:23:00,36.0,23.0,-100.00,South,175,9.0,27.0,59,-99.99,,,-99.99,,2013-01-18 16:23:00,
2013-01-18 10:33:00,36.0,23.0,-100.00,South,175,9.0,27.0,59,-99.99,,,-99.99,,2013-01-18 16:33:00,
2013-01-18 10:42:00,36.0,23.0,-100.00,South,175,9.0,27.0,59,-99.99,,,-99.99,,2013-01-18 16:42:00,
2013-01-18 10:53:00,37.0,24.0,-100.00,SSE,160,10.0,-999.0,59,-99.99,,,-99.99,,2013-01-18 16:53:00,
2013-01-18 11:03:00,37.0,24.0,-100.00,SSE,160,10.0,-999.0,59,-99.99,,,-99.99,,2013-01-18 17:03:00,
2013-01-18 11:13:00,37.0,24.0,-100.00,SSE,160,11.0,24.0,59,-99.99,,,-99.99,,2013-01-18 17:13:00,
2013-01-18 11:23:00,39.0,25.0,-100.00,South,175,11.0,23.0,58,-99.99,,,-99.99,,2013-01-18 17:23:00,
2013-01-18 11:33:00,39.0,25.0,-100.00,South,175,11.0,23.0,58,-99.99,,,-99.99,,2013-01-18 17:33:00,
2013-01-18 11:43:00,39.0,25.0,-100.00,South,180,9.0,26.0,56,-99.99,,,-99.99,,2013-01-18 17:43:00,
2013-01-18 11:53:00,40.0,26.0,-100.00,SSE,160,13.0,26.0,56,-99.99,,,-99.99,,2013-01-18 17:53:00,
2013-01-18 12:03:00,40.0,26.0,-100.00,SSE,160,13.0,26.0,56,-99.99,,,-99.99,,2013-01-18 18:03:00,
2013-01-18 12:13:00,42.0,26.0,-100.00,South,175,11.0,30.0,54,-99.99,,,-99.99,,2013-01-18 18:13:00,
2013-01-18 12:23:00,42.0,27.0,-100.00,South,180,15.0,36.0,55,-99.99,,,-99.99,,2013-01-18 18:23:00,
2013-01-18 12:33:00,42.0,27.0,-100.00,South,180,15.0,36.0,55,-99.99,,,-99.99,,2013-01-18 18:33:00,
2013-01-18 12:43:00,43.0,27.0,-100.00,South,185,7.0,23.0,53,-99.99,,,-99.99,,2013-01-18 18:43:00,
2013-01-18 12:53:00,44.0,28.0,-100.00,South,185,6.0,26.0,54,-99.99,,,-99.99,,2013-01-18 18:53:00,
2013-01-18 13:03:00,44.0,28.0,-100.00,South,185,6.0,26.0,54,-99.99,,,-99.99,,2013-01-18 19:03:00,
2013-01-18 13:12:00,43.0,28.0,-100.00,SE,125,8.0,27.0,54,-99.99,,,-99.99,,2013-01-18 19:12:00,
2013-01-18 13:23:00,44.0,28.0,-100.00,SSE,155,8.0,26.0,54,-99.99,,,-99.99,,2013-01-18 19:23:00,
2013-01-18 13:33:00,44.0,28.0,-100.00,SSE,155,8.0,26.0,54,-99.99,,,-99.99,,2013-01-18 19:33:00,
2013-01-18 13:43:00,45.0,29.0,-100.00,SSW,205,4.0,24.0,54,-99.99,,,-99.99,,2013-01-18 19:43:00,
2013-01-18 13:53:00,45.0,29.0,-100.00,SSE,150,7.0,24.0,53,-99.99,,,-99.99,,2013-01-18 19:53:00,
2013-01-18 14:03:00,45.0,29.0,-100.00,SSE,150,7.0,24.0,53,-99.99,,,-99.99,,2013-01-18 20:03:00,
2013-01-18 14:13:00,45.0,29.0,-100.00,SSE,165,13.0,26.0,54,-99.99,,,-99.99,,2013-01-18 20:13:00,
2013-01-18 14:23:00,45.0,30.0,-100.00,South,185,9.0,27.0,54,-99.99,,,-99.99,,2013-01-18 20:23:00,
2013-01-18 14:33:00,45.0,30.0,-100.00,South,185,9.0,27.0,54,-99.99,,,-99.99,,2013-01-18 20:33:00,
2013-01-18 14:43:00,46.0,30.0,-100.00,South,175,11.0,21.0,54,-99.99,,,-99.99,,2013-01-18 20:43:00,
2013-01-18 14:53:00,46.0,31.0,-100.00,South,185,6.0,18.0,54,-99.99,,,-99.99,,2013-01-18 20:53:00,
2013-01-18 15:03:00,46.0,31.0,-100.00,South,185,6.0,18.0,54,-99.99,,,-99.99,,2013-01-18 21:03:00,
2013-01-18 15:13:00,47.0,31.0,-100.00,South,175,8.0,21.0,54,-99.99,,,-99.99,,2013-01-18 21:13:00,
2013-01-18 15:23:00,47.0,30.0,-100.00,South,185,14.0,30.0,52,-99.99,,,-99.99,,2013-01-18 21:23:00,
2013-01-18 15:33:00,47.0,30.0,-100.00,South,185,14.0,30.0,52,-99.99,,,-99.99,,2013-01-18 21:33:00,
2013-01-18 15:42:00,47.0,30.0,-100.00,South,185,14.0,23.0,52,-99.99,,,-99.99,,2013-01-18 21:42:00,
2013-01-18 15:53:00,47.0,31.0,-100.00,South,185,7.0,24.0,53,-99.99,,,-99.99,,2013-01-18 21:53:00,
2013-01-18 16:03:00,47.0,31.0,-100.00,South,185,7.0,24.0,53,-99.99,,,-99.99,,2013-01-18 22:03:00,
2013-01-18 16:12:00,48.0,31.0,-100.00,SSW,200,6.0,21.0,52,-99.99,,,-99.99,,2013-01-18 22:12:00,
2013-01-18 16:23:00,48.0,31.0,-100.00,South,190,6.0,16.0,52,-99.99,,,-99.99,,2013-01-18 22:23:00,
2013-01-18 16:33:00,48.0,31.0,-100.00,South,190,6.0,16.0,52,-99.99,,,-99.99,,2013-01-18 22:33:00,
2013-01-18 16:43:00,48.0,31.0,-100.00,South,175,7.0,19.0,52,-99.99,,,-99.99,,2013-01-18 22:43:00,
2013-01-18 16:53:00,47.0,31.0,-100.00,SSW,195,4.0,13.0,53,-99.99,,,-99.99,,2013-01-18 22:53:00,
2013-01-18 17:03:00,47.0,31.0,-100.00,SSW,195,4.0,13.0,53,-99.99,,,-99.99,,2013-01-18 23:03:00,
2013-01-18 17:12:00,47.0,31.0,-100.00,SSE,165,8.0,22.0,53,-99.99,,,-99.99,,2013-01-18 23:12:00,
2013-01-18 17:22:00,47.0,30.0,-100.00,SSE,165,11.0,19.0,53,-99.99,,,-99.99,,2013-01-18 23:22:00,
2013-01-18 17:33:00,47.0,30.0,-100.00,SSE,165,11.0,19.0,53,-99.99,,,-99.99,,2013-01-18 23:33:00,
2013-01-18 17:43:00,47.0,30.0,-100.00,SSE,165,11.0,19.0,53,-99.99,,,-99.99,,2013-01-18 23:43:00,
2013-01-18 17:53:00,46.0,30.0,-100.00,South,170,6.0,22.0,54,-99.99,,,-99.99,,2013-01-18 23:53:00,
2013-01-18 18:02:00,46.0,30.0,-100.00,South,170,6.0,22.0,54,-99.99,,,-99.99,,2013-01-19 00:02:00,
2013-01-18 18:12:00,46.0,30.0,-100.00,SSW,200,6.0,16.0,54,-99.99,,,-99.99,,2013-01-19 00:12:00,
2013-01-18 18:22:00,46.0,30.0,-100.00,South,180,9.0,17.0,54,-99.99,,,-99.99,,2013-01-19 00:22:00,
2013-01-18 18:33:00,46.0,30.0,-100.00,South,180,9.0,17.0,54,-99.99,,,-99.99,,2013-01-19 00:33:00,
2013-01-18 18:43:00,46.0,30.0,-100.00,South,170,9.0,15.0,54,-99.99,,,-99.99,,2013-01-19 00:43:00,
2013-01-18 18:53:00,46.0,30.0,-100.00,South,180,6.0,18.0,54,-99.99,,,-99.99,,2013-01-19 00:53:00,
2013-01-18 19:02:00,46.0,30.0,-100.00,South,180,6.0,18.0,54,-99.99,,,-99.99,,2013-01-19 01:02:00,
2013-01-18 19:12:00,45.0,30.0,-100.00,South,180,8.0,16.0,54,-99.99,,,-99.99,,2013-01-19 01:12:00,
2013-01-18 19:22:00,46.0,30.0,-100.00,South,180,9.0,17.0,53,-99.99,,,-99.99,,2013-01-19 01:22:00,
2013-01-18 19:32:00,46.0,30.0,-100.00,South,180,9.0,17.0,53,-99.99,,,-99.99,,2013-01-19 01:32:00,
2013-01-18 19:42:00,45.0,30.0,-100.00,South,180,11.0,18.0,54,-99.99,,,-99.99,,2013-01-19 01:42:00,
2013-01-18 19:53:00,45.0,30.0,-100.00,SSE,160,5.0,13.0,55,-99.99,,,-99.99,,2013-01-19 01:53:00,
2013-01-18 20:02:00,45.0,30.0,-100.00,SSE,160,5.0,13.0,55,-99.99,,,-99.99,,2013-01-19 02:02:00,
2013-01-18 20:12:00,44.0,29.0,-100.00,SSW,205,8.0,16.0,55,-99.99,,,-99.99,,2013-01-19 02:12:00,
2013-01-18 20:22:00,44.0,29.0,-100.00,South,175,5.0,15.0,55,-99.99,,,-99.99,,2013-01-19 02:22:00,
2013-01-18 20:33:00,44.0,29.0,-100.00,South,175,5.0,15.0,55,-99.99,,,-99.99,,2013-01-19 02:33:00,
2013-01-18 20:43:00,44.0,29.0,-100.00,SSW,195,6.0,14.0,55,-99.99,,,-99.99,,2013-01-19 02:43:00,
2013-01-18 20:53:00,44.0,29.0,-100.00,SSE,165,5.0,21.0,55,-99.99,,,-99.99,,2013-01-19 02:53:00,
2013-01-18 21:03:00,44.0,29.0,-100.00,SSE,165,5.0,21.0,55,-99.99,,,-99.99,,2013-01-19 03:03:00,
2013-01-18 21:12:00,44.0,29.0,-100.00,SSW,195,4.0,12.0,56,-99.99,,,-99.99,,2013-01-19 03:12:00,
2013-01-18 21:22:00,44.0,29.0,-100.00,SW,225,4.0,15.0,56,-99.99,,,-99.99,,2013-01-19 03:22:00,
2013-01-18 21:33:00,44.0,29.0,-100.00,SW,225,4.0,15.0,56,-99.99,,,-99.99,,2013-01-19 03:33:00,
2013-01-18 21:43:00,44.0,29.0,-100.00,South,175,4.0,15.0,56,-99.99,,,-99.99,,2013-01-19 03:43:00,
2013-01-18 21:53:00,43.0,29.0,-100.00,SSW,195,3.0,14.0,57,-99.99,,,-99.99,,2013-01-19 03:53:00,
2013-01-18 22:02:00,43.0,29.0,-100.00,SSW,195,3.0,14.0,57,-99.99,,,-99.99,,2013-01-19 04:02:00,
2013-01-18 22:12:00,43.0,29.0,-100.00,South,185,4.0,14.0,57,-99.99,,,-99.99,,2013-01-19 04:12:00,
2013-01-18 22:22:00,44.0,29.0,-100.00,SSW,195,8.0,15.0,56,-99.99,,,-99.99,,2013-01-19 04:22:00,
2013-01-18 22:32:00,44.0,29.0,-100.00,SSW,195,8.0,15.0,56,-99.99,,,-99.99,,2013-01-19 04:32:00,
2013-01-18 22:42:00,44.0,29.0,-100.00,SSW,210,6.0,17.0,57,-99.99,,,-99.99,,2013-01-19 04:42:00,
2013-01-18 22:53:00,43.0,30.0,-100.00,SW,220,7.0,17.0,59,-99.99,,,-99.99,,2013-01-19 04:53:00,
2013-01-18 23:03:00,43.0,30.0,-100.00,SW,220,7.0,17.0,59,-99.99,,,-99.99,,2013-01-19 05:03:00,
2013-01-18 23:12:00,44.0,30.0,-100.00,SSW,195,7.0,17.0,57,-99.99,,,-99.99,,2013-01-19 05:12:00,
2013-01-18 23:23:00,43.0,30.0,-100.00,South,190,3.0,14.0,59,-99.99,,,-99.99,,2013-01-19 05:23:00,
2013-01-18 23:33:00,43.0,30.0,-100.00,South,190,3.0,14.0,59,-99.99,,,-99.99,,2013-01-19 05:33:00,
2013-01-18 23:42:00,44.0,31.0,-100.00,South,170,8.0,19.0,60,-99.99,,,-99.99,,2013-01-19 05:42:00,
2013-01-18 23:53:00,44.0,31.0,-100.00,SSW,205,6.0,14.0,60,-99.99,,,-99.99,,2013-01-19 05:53:00,